Find FSKL5695-12

NORAD ID: 64886 Int'l Des: NNA 2025-155 Owner: RATEKS Country: RU operational
LEOCIRCULARRETROGRADESSO

Current View

Loading 3D Globe...

About FSKL5695-12

FSKL5695-12 (NORAD 64886) is a satellite launched Jul 25, 2025 by RATEKS of RU. It operates in LEO, CIRCULAR, RETROGRADE, SSO orbit with a mass of 3.00 kg.

Upcoming Passes

Passes for default location (London). Set your location on the main map for personalized predictions.

Altitude History

Loading altitude history...

Two-Line Element Set

1 64886U 25155L 26195.17190992 .00020188 00000-0 45367-3 0 9998
2 64886 97.4468 166.6602 0009198 78.9270 281.3012 15.43336819 85091
Epoch: Jul 14, 2026 • Age: 6 hours

Current Status

Altitude 456.5 km
Apogee / Perigee N/A
Velocity 7.63 km/s
Sub-Earth Point -39.83°S, 97.75°W
Launch Date Jul 25, 2025
Age 0.9 years
Type other

Technical Details

Classification Payload
Mass 3.00 kg
Dry Mass 3.00 kg
Total Mass 3.00 kg
Length 0.30 m
Diameter 0.10 m
Span 0.30 m
Shape Box
Manufacturer RATEKS
Bus Type Cubesat 3U
Phase Status In Orbit
Owner/State RATEKS/RU

Most Searched